This is the latest recevied weather packets stored in our database for station/object WV8BRW. If no packets are shown the sender has not sent any weather packets the latest 10 day(s).
| Time | Temp. | Humidity | Pressure | Rain* | Wind** | Luminosity | Snow |
|---|---|---|---|---|---|---|---|
| 1777398024 | 22.22° C | 87% | 1014 hPa | 0 mm | - | 331 W/m² | - |
| 1777397721 | 21.67° C | 86% | 1013.9 hPa | 0 mm | - | 296 W/m² | - |
| 1777397417 | 21.11° C | 89% | 1013.8 hPa | 0 mm | - | 318 W/m² | - |
| 1777397113 | 20.56° C | 88% | 1013.9 hPa | 0 mm | - | 230 W/m² | - |
| 1777396810 | 20.56° C | 91% | 1014.1 hPa | 0 mm | - | 166 W/m² | - |
| 1777396506 | 20.56° C | 91% | 1014 hPa | 0 mm | - | 122 W/m² | - |
| 1777396203 | 20.56° C | 90% | 1014.1 hPa | 0 mm | - | 109 W/m² | - |
| 1777395899 | 20.56° C | 88% | 1013.8 hPa | 0 mm | - | 124 W/m² | - |
| 1777395594 | 21.11° C | 87% | 1014.1 hPa | 0 mm | - | 170 W/m² | - |
| 1777395290 | 21.67° C | 87% | 1013.9 hPa | 0 mm | - | 314 W/m² | - |
| 1777394989 | 21.67° C | 89% | 1014.1 hPa | 0 mm | - | 560 W/m² | - |
| 1777394685 | 21.11° C | 90% | 1014.1 hPa | 0 mm | - | 602 W/m² | - |
| 1777394381 | 20.56° C | 88% | 1014.3 hPa | 0 mm | - | 548 W/m² | - |
| 1777394077 | 20.56° C | 91% | 1014 hPa | 0 mm | - | 344 W/m² | - |
| 1777393773 | 20° C | 93% | 1014.2 hPa | 0 mm | - | 407 W/m² | - |
| 1777393467 | 19.44° C | 94% | 1014.2 hPa | 0 mm | - | 275 W/m² | - |
| 1777393163 | 18.89° C | 95% | 1014.4 hPa | 0 mm | - | 179 W/m² | - |
| 1777392860 | 18.89° C | 94% | 1014.4 hPa | 0 mm | - | 195 W/m² | - |
| 1777392555 | 18.89° C | 95% | 1014.5 hPa | 0 mm | - | 152 W/m² | - |
| 1777392251 | 18.33° C | 95% | 1014.6 hPa | 0 mm | - | 97 W/m² | - |
| 1777391946 | 18.89° C | 94% | 1014.5 hPa | 0 mm | - | 58 W/m² | - |
| 1777391642 | 18.89° C | 93% | 1014.5 hPa | 0 mm | - | 53 W/m² | - |
| 1777391338 | 18.89° C | 92% | 1014.4 hPa | 0 mm | - | 59 W/m² | - |
| 1777391035 | 18.89° C | 92% | 1014.3 hPa | 0 mm | - | 76 W/m² | - |
| 1777390730 | 18.89° C | 92% | 1014.2 hPa | 0 mm | - | 89 W/m² | - |
* Rain latest hour (hover to see other rain measurements)
** Current wind speed in m/s (hover to see current wind gust speed)